EW9135 Weather Reports


time (UTC)temp
C
wind
direction
speed
KPH
gust
KPH
rain 1hr
cm
rain 24hr
cm
rain mn
cm
humidity
%
barometer
mb
20260509113127 13 217 0.0 0.0 0.00 0.00 0.00 44 1021.1
20260509113122 13 222 0.0 0.0 0.00 0.00 0.00 44 1021.1
20260509112117 13 222 0.0 0.0 0.00 0.00 0.00 44 1020.7
20260509111610 13 222 0.0 0.0 0.00 0.00 0.00 43 1021.1
20260509111106 13 189 0.0 0.0 0.00 0.00 0.00 43 1021.1
20260509110601 13 189 0.0 0.0 0.00 0.00 0.00 43 1021.1
20260509110056 13 200 0.0 0.0 0.00 0.00 0.00 42 1021.1
20260509105550 13 185 0.0 0.0 0.00 0.00 0.00 42 1021.1
20260509105045 13 205 0.0 0.0 0.00 0.00 0.00 42 1021.1
20260509104539 13 178 0.0 0.0 0.00 0.00 0.00 41 1020.7
20260509104034 13 168 0.0 0.0 0.00 0.00 0.00 41 1020.7
20260509103530 13 169 0.0 0.0 0.00 0.00 0.00 41 1020.7
20260509103023 13 186 0.0 0.0 0.00 0.00 0.00 41 1021.1
20260509102518 13 173 0.0 0.0 0.00 0.00 0.00 41 1020.7
20260509102014 13 165 0.0 0.0 0.00 0.00 0.00 41 1020.7
20260509101508 13 189 0.0 0.0 0.00 0.00 0.00 42 1021.1
20260509101002 13 189 0.0 0.0 0.00 0.00 0.00 42 1020.7
20260509100458 13 213 0.0 0.0 0.00 0.00 0.00 41 1021.4
20260509095952 13 213 0.0 0.0 0.00 0.00 0.00 41 1020.7
20260509095446 13 213 0.0 0.0 0.00 0.00 0.00 40 1020.7
20260509094942 13 191 0.0 0.0 0.00 0.00 0.00 41 1021.1
20260509094437 13 181 0.0 0.0 0.00 0.00 0.00 41 1021.4
20260509094431 13 198 0.0 0.0 0.00 0.00 0.00 41 1021.1
20260509093427 13 215 0.0 0.0 0.00 0.00 0.00 42 1021.1
20260509092919 13 215 0.0 0.0 0.00 0.00 0.00 41 1021.4
20260509092416 13 215 0.0 0.0 0.00 0.00 0.00 40 1021.1
20260509091910 13 215 0.0 0.0 0.00 0.00 0.00 40 1021.1
20260509091405 13 215 0.0 0.0 0.00 0.00 0.00 39 1021.1
20260509091400 13 215 0.0 0.0 0.00 0.00 0.00 40 1021.1
20260509090354 14 215 0.0 0.0 0.00 0.00 0.00 40 1021.1
20260509085848 14 217 0.0 0.0 0.00 0.00 0.00 40 1020.7
20260509085343 14 249 0.0 0.0 0.00 0.00 0.00 40 1021.1
20260509084838 14 278 0.0 0.0 0.00 0.00 0.00 41 1021.1
20260509084332 15 229 0.0 0.0 0.00 0.00 0.00 41 1021.1
20260509083827 15 272 0.0 0.0 0.00 0.00 0.00 39 1021.4
20260509083323 15 272 0.0 0.0 0.00 0.00 0.00 38 1021.4
20260509082816 15 272 0.0 0.0 0.00 0.00 0.00 37 1021.4
20260509082311 15 274 0.0 0.0 0.00 0.00 0.00 36 1021.1
20260509081807 15 244 0.0 0.0 0.00 0.00 0.00 36 1021.1
20260509081300 15 277 0.0 0.0 0.00 0.00 0.00 35 1021.4
20260509080755 15 270 0.0 0.0 0.00 0.00 0.00 35 1021.4
20260509080253 15 319 0.0 0.0 0.00 0.00 0.00 35 1021.4